Location: Ellingshausen
(50.5460°N, 10.4723°E)
Time: 22:10:56
(UTC+00:00)

Cosmos 2082 Rocket - Pass Details

Date: 18 January 2026
Orbit: 832 x 853 km, 71.0° (Epoch: 7 February)

Event Time Altitude Azimuth Distance (km) Brightness Sun altitude
Exits shadow 04:12:07 38° 356° (N) 1,270 3.0 -27.7°
Maximum altitude 04:14:05 58° 55° (NE) 984 2.7 -27.4°
Drops below altitude 10° 04:19:41 10° 135° (SE) 2,472 5.2 -26.5°
Sets 04:22:10 0° 139° (SE) 3,406 5.9 -26.1°
